sat.trackr.live / text

‹ back to catalog

STARLINK-34619

NORAD 64737 · 2025-144P

PAYLOAD ACTIVE UNKNOWN

§ Identity

Operator
Country
US
Launch date
2025-07-02
Launch site
AFETR
Launch vehicle
Mass (kg)
RCS (m²)

Purposes: comms

External: N2YO · Heavens-Above · Gunter

§ Orbital elements

Epoch: 2026-05-25T03:32:56.018976Z

Period
94.11 min
Inclination
53.1571°
Eccentricity
0.0001150
Mean motion
15.30204835 rev/d
Perigee alt
474.4 km
Apogee alt
476.0 km
Semi-major
6,853.3 km
B*
3.6537e-4
RAAN
186.2063°
Arg perigee
99.4761°
Mean anomaly
260.6370°
Rev number
5,141

§ Raw data

STARLINK-346191 64737U 25144P   26145.14787059  .00010479  00000+0  36537-3 0  99992 64737  53.1571 186.2063 0001150  99.4761 260.6370 15.30204835 51416

JSON: /api/v1/satellites/64737 · /tle

For live sub-satellite position, see the globe view (requires WebGL).

§ Visibility from observer

Set your observer location to see the next 7 days of passes ≥ 10°. The values pass through the URL so the page stays shareable.

No JS? Fill the form by hand. The geolocation button needs JavaScript.